星链-31396 (STARLINK-31396 )

导读

STARLINK-31396是美国SpaceX星链星座中的一颗卫星,于2024年4月5日发射入轨。作为星链项目的组成部分,它主要为全球提供低延迟、高速率的卫星互联网服务,覆盖偏远地区等地面网络难以覆盖的区域,进一步扩充了星链星座的在轨规模,推进了全球卫星互联网组网建设进程。

Basic Information
目录编号:
59409
目录名称:
STARLINK-31396
国际标识:
2024-064M
轨道中心:
EARTH
卫星名称:
星链-31396
卫星全名:
星链-31396 (STARLINK-31396 )
卫星状态:
在轨 (已飞行883 天)
发射日期:
2024-04-05 UTC
国别 :
美国 (US)
星等 :
--
Orbit Information
数据来源 国际轨道数据
星历时间: 2026-09-05T08:31:28+0800
16小时前
查看轨道信息
半长轴: 6861.185km
偏心率: 0.000147
轨道倾角: 43.003°
近地点辐角 272.534°
升交点赤经 112.894°
平近点角 87.535°
近地点: 482.039km
远地点: 484.057km
周期: 94.267分钟
每日圈数: 15.275806
Detailed Information
固有亮度:
5
最大亮度:
0.3
卫星平台:
Starlink v2.0 mini
覆盖范围:
全球
运营商:
太空探索技术公司
运营商所在国:
美国
制造商(研发单位):
太空探索技术公司
制造商所在国:
美国
使用方式:
暂无
Satellite Introduction
星链(Starlink)计划是由太空探索技术公司(SpaceX)提出的一个巨型低轨卫星互联网星座项目,计划在2019年至2024年间在太空搭建由约1.2万颗卫星组成的“星链”网络,其中1584颗将部署在地球上空550千米处的近地轨道,并从2020年开始工作。该卫星仍在工作。
2D Orbit Map
3D Orbit Map
Orbit Altitude Analysis Chart
Orbit Inclination Analysis Chart
Orbit Comprehensive Analysis Chart
View Comprehensive Chart
Conjunction Data List
Event ID Objects TCA Miss Dist (km) Collision Risk Probability Collision Risk Index (CRI) Action
CDM_260907-025705-940906-718221
2026-09-07T
02:57:50+0000
0.577 km
远距离
9.639473E-5 中风险 0.75
CDM_260907-161805-940906-718221
2026-09-07T
16:18:08+0000
1.195 km
极远距离
9.215621E-6 低风险 0.54
CDM_260907-012305-940906-718222
2026-09-07T
01:23:41+0000
1.211 km
极远距离
8.806234E-6 低风险 0.54
CDM_260906-063905-752705-940921
2026-09-06T
06:39:39+0000
1.128 km
极远距离
7.051287E-6 低风险 0.52
CDM_260907-175205-940906-718221
2026-09-07T
17:52:17+0000
1.345 km
极远距离
6.168511E-6 低风险 0.51
CDM_260907-043105-940906-718221
2026-09-07T
04:31:59+0000
2.327 km
极远距离
1.362954E-6 低风险 0.38
CDM_260907-003304-377005-940921
AO-95 (43770)
2026-09-07T
00:33:48+0000
2.949 km
极远距离
1.324937E-6 低风险 0.37
CDM_260906-234905-940906-718222
2026-09-06T
23:49:32+0000
2.908 km
极远距离
9.601624E-7 极低风险 0.35
CDM_260829-190405-917205-940921
2026-08-29T
19:04:26+0000
1.828 km
极远距离
8.954619E-7 极低风险 0.34